Location: Bow
(51.5261°N, 0.0167°W)
Time: 05:26:15
(UTC+00:00)

USA 229 DEB - Pass Details

Date: 18 September 2020
Orbit: 971 x 1241 km, 63.4° (Epoch: 14 October)

Event Time Altitude Azimuth Distance (km) Brightness Sun altitude
Rises 18:40:25 0° 242° (WSW) 3,713 7.5 -6.0°
Reaches altitude 10° 18:43:00 10° 247° (WSW) 2,792 6.9 -6.4°
Maximum altitude 18:49:28 57° 326° (NW) 1,234 4.4 -7.4°
Drops below altitude 10° 18:56:24 10° 44° (NE) 2,982 5.7 -8.5°
Sets 18:59:15 0° 49° (NE) 3,985 6.3 -8.9°
